Tracking 29892 objects as of 21-Nov-2024
HD Live streaming from Space Station
objects crossing your sky now

STARLINK-31759

Track STARLINK-31759 now!
10-day predictions
STARLINK-31759 is classified as:


NORAD ID: 59740
Int'l Code: 2024-090L
Perigee: 450.3 km
Apogee: 452.1 km
Inclination: 43.0 °
Period: 93.5 minutes
Semi major axis: 6822 km
RCS: Unknown
Launch date: May 13, 2024
Source: United States (US)
Launch site: AIR FORCE EASTERN TEST RANGE (AFETR)
Your satellite tracking list
Your tracking list is empty




NASA's NSSDC Master Catalog

Two Line Element Set (TLE):
1 59740U 24090L   24325.43231659  .00001179  00000-0  35489-4 0  9990
2 59740  43.0040 351.8078 0001286 266.4816  93.5893 15.40700454 30796
Source of the keplerian elements: AFSPC